Seward, AK

10:39 PM AKDT on March 24, 2017 (GMT -0800)
Seward

Weather History for PAWD - March, 2013

Change the Weather History Date:

Tuesday, March 19, 2013

  Actual Average Record
Temperature  
Mean Temperature 24 °F -  
Max Temperature 28 °F 37 °F 48 °F (2005)
Min Temperature 21 °F 26 °F 10 °F (1959)
Degree Days  
Heating Degree Days 40    
Moisture  
Dew Point 3 °F    
Average Humidity 40    
Maximum Humidity 55    
Minimum Humidity 31    
Precipitation  
Precipitation 0.00 in - - ()
Sea Level Pressure  
Sea Level Pressure 29.81 in    
Wind  
Wind Speed 16 mph (NNW)    
Max Wind Speed 23 mph    
Max Gust Speed 36 mph    
Visibility 10 miles    
Events      
Averages and records for this station are not official NWS values.
T = Trace of Precipitation, MM = Missing Value Source: NWS Daily Summary

Daily Weather History Graph

Daily Weather History Graph

Search for Another Location

Airport or City:

Trip Planner

Search our weather history database for the weather conditions in past years. The results will help you decide how hot, cold, wet, or windy it might be!

Date:

Astronomy

Mar. 19, 2013 Rise Set
Actual Time 8:00 AM AKDT 8:11 PM AKDT
Civil Twilight 7:19 AM AKDT 8:52 PM AKDT
Nautical Twilight 6:29 AM AKDT 9:43 PM AKDT
Astronomical Twilight 5:35 AM AKDT 10:37 PM AKDT
Moon 11:32 AM AKDT (3/19) 4:32 AM AKDT (3/19)
Length of Visible Light 13h 33m
Length of Day
12h 10m
Waxing Crescent, 51% of the Moon is Illuminated
Mar 19
Waxing Crescent
Mar 27
Full
Apr 2
Last Quarter
Apr 10
New
Apr 18
First Quarter

Hourly Weather History & Observations

Time (AKDT) Temp. Windchill Dew Point Humidity Pressure Visibility Wind Dir Wind Speed Gust Speed Precip Events Conditions
12:53 AM 25.0 °F 12.6 °F 5.0 °F 43% 29.82 in 10.0 mi North 15.0 mph - N/A   Clear
1:53 AM 26.1 °F 13.6 °F 5.0 °F 41% 29.82 in 10.0 mi NNE 16.1 mph 27.6 mph N/A   Clear
2:53 AM 24.1 °F 11.0 °F 6.1 °F 46% 29.82 in 10.0 mi North 16.1 mph 21.9 mph N/A   Clear
3:53 AM 24.1 °F 12.5 °F 6.1 °F 46% 29.81 in 10.0 mi NNE 12.7 mph - N/A   Clear
4:53 AM 23.0 °F 11.1 °F 7.0 °F 50% 29.81 in 10.0 mi NNE 12.7 mph 20.7 mph N/A   Clear
5:53 AM 23.0 °F 9.6 °F 7.0 °F 50% 29.80 in 10.0 mi North 16.1 mph 19.6 mph N/A   Clear
6:53 AM 24.1 °F 11.5 °F 9.0 °F 53% 29.81 in 10.0 mi North 15.0 mph 26.5 mph N/A   Clear
7:53 AM 23.0 °F 10.1 °F 9.0 °F 55% 29.81 in 10.0 mi NE 15.0 mph 25.3 mph N/A   Clear
8:53 AM 21.9 °F 10.4 °F 7.0 °F 53% 29.82 in 10.0 mi North 11.5 mph 24.2 mph N/A   Clear
9:53 AM 23.0 °F 11.1 °F 7.0 °F 50% 29.82 in 10.0 mi North 12.7 mph 20.7 mph N/A   Clear
10:53 AM 26.1 °F 15.0 °F 3.0 °F 37% 29.82 in 10.0 mi North 12.7 mph 20.7 mph N/A   Clear
11:53 AM 26.1 °F 13.1 °F -0.0 °F 32% 29.81 in 10.0 mi NW 17.3 mph 34.5 mph N/A   Clear
12:53 PM 26.1 °F 12.7 °F 1.0 °F 34% 29.84 in 10.0 mi WNW 18.4 mph 35.7 mph N/A   Clear
1:53 PM 26.1 °F 11.6 °F 1.9 °F 35% 29.84 in 10.0 mi NW 21.9 mph 32.2 mph N/A   Clear
2:53 PM 27.0 °F 13.5 °F 1.0 °F 33% 29.83 in 10.0 mi NW 19.6 mph 28.8 mph N/A   Clear
3:53 PM 27.0 °F 14.3 °F 1.9 °F 34% 29.82 in 10.0 mi NW 17.3 mph 33.4 mph N/A   Clear
4:53 PM 28.0 °F 13.9 °F 1.9 °F 33% 29.81 in 10.0 mi NW 23.0 mph 29.9 mph N/A   Clear
5:53 PM 28.0 °F 15.7 °F 1.0 °F 31% 29.79 in 10.0 mi NNW 17.3 mph 32.2 mph N/A   Clear
6:53 PM 26.1 °F 12.3 °F -0.0 °F 32% 29.79 in 9.0 mi NW 19.6 mph 32.2 mph N/A   Clear
7:53 PM 26.1 °F 13.1 °F -0.0 °F 32% 29.78 in 10.0 mi NNW 17.3 mph 24.2 mph N/A   Clear
8:53 PM 25.0 °F 10.6 °F 1.0 °F 36% 29.78 in 10.0 mi NW 20.7 mph 32.2 mph N/A   Clear
9:53 PM 25.0 °F 11.7 °F 1.0 °F 36% 29.79 in 10.0 mi NNW 17.3 mph 32.2 mph N/A   Clear
10:53 PM 24.1 °F 12.0 °F 1.0 °F 37% 29.79 in 10.0 mi NNW 13.8 mph 26.5 mph N/A   Clear
11:53 PM 24.1 °F 11.5 °F -0.9 °F 34% 29.79 in 10.0 mi NNW 15.0 mph 26.5 mph N/A   Clear